Wetbulb
63.11 59.97 59.96 58.79 49.74 48.25 45.66 46.60 51.57 50.97 51.31 54.49 54.76 54.37 54.05 56.07 53.67 49.63 58.63 58.50 58.92 60.13 60.58 62.02 60.65 61.09 61.48 61.85 62.02 62.32 62.60 63.36 65.12 66.39 67.91 68.68 69.26 70.15 70.13 69.80 70.15 69.58 69.97 70.53 70.78 70.88 70.12 69.06 68.87
61.17 58.55 59.20 55.34 46.11 43.93 45.89 49.40 48.44 51.48 54.64 55.66 54.82 54.64 54.12 52.97 56.93 55.83 57.05 57.61 59.19 58.61 58.91 59.71 58.81 59.45 60.11 60.22 60.55 60.75 61.09 61.64 62.33 63.03 64.48 66.01 67.84 68.62 69.32 69.28 69.22 68.98 69.04 70.22 70.27 70.30 70.29 69.63 69.36
60.05 59.16 53.86 50.06 47.50 44.07 45.64 49.65 50.51 53.13 55.37 55.32 54.61 56.05 55.96 54.91 56.20 57.64 58.23 58.42 58.23 57.87 57.69 58.07 57.07 57.83 58.30 58.58 58.91 59.44 59.61 60.20 60.97 61.75 62.29 63.33 64.52 67.06 67.74 68.44 68.85 68.79 68.30 69.29 70.16 69.98 69.70 69.46 69.18
57.75 55.11 52.71 45.85 45.42 48.32 48.04 50.14 51.88 51.95 52.39 55.91 54.76 52.57 55.34 57.87 57.00 58.39 58.01 58.04 57.69 56.81 57.03 56.56 55.46 56.22 56.45 56.75 57.32 57.71 58.23 58.83 59.27 59.74 60.41 61.38 62.16 63.01 64.81 67.05 67.80 68.61 68.73 68.36 69.07 69.36 69.00 68.90 68.99
57.25 53.84 47.15 46.11 46.78 49.08 50.53 50.86 52.12 51.38 52.26 52.64 53.49 51.96 53.11 55.38 57.41 57.15 57.21 57.20 57.04 56.57 56.56 55.78 53.60 53.81 54.25 54.69 55.47 56.10 56.55 57.23 57.77 58.22 58.45 59.29 60.09 60.78 61.83 63.89 66.11 67.38 68.43 68.68 68.39 68.68 68.30 68.20 68.41
51.31 52.25 44.97 43.98 46.85 48.83 50.21 51.65 51.44 51.48 52.86 52.16 51.30 52.26 53.27 56.73 55.64 56.34 57.14 57.00 56.50 55.85 55.37 54.67 52.43 51.41 51.95 52.97 53.62 54.26 55.11 55.93 56.49 56.79 57.17 57.79 58.44 58.99 59.70 60.79 62.70 65.46 67.58 68.26 68.20 68.13 67.50 67.54 67.63
50.82 48.93 46.02 47.05 46.73 47.78 49.31 51.75 50.35 50.83 51.57 51.49 52.83 49.73 53.53 53.75 56.08 56.50 56.68 56.80 55.99 55.43 54.56 53.83 53.46 54.01 52.69 52.76 52.51 52.86 53.54 54.30 54.93 55.61 56.04 56.21 56.49 56.76 57.13 57.61 59.06 61.68 65.53 67.16 67.60 67.14 66.56 66.94 66.52
52.38 50.31 46.29 47.06 45.93 46.65 50.00 50.11 51.12 50.92 50.75 52.99 53.41 49.68 50.89 54.73 55.90 55.80 56.15 55.68 55.54 55.08 53.77 52.94 53.17 53.57 53.42 53.62 54.47 52.20 52.47 53.66 54.23 54.66 54.72 54.23 53.93 54.62 55.12 55.59 56.69 59.29 61.96 65.15 66.51 66.47 66.33 66.27 65.69
52.85 46.35 45.22 46.84 46.15 47.42 49.79 48.52 51.55 52.19 50.89 50.90 52.75 52.55 53.41 55.32 54.91 54.20 54.04 54.23 54.47 54.13 53.33 52.94 52.80 52.94 52.90 52.53 52.09 53.21 54.87 54.91 54.24 54.99 55.39 54.21 54.57 55.26 55.46 56.24 57.20 57.03 60.22 62.64 64.82 65.73 65.43 64.97 63.84
49.08 45.98 46.95 48.80 48.44 47.16 48.66 48.80 50.17 49.13 49.81 50.03 51.05 53.30 52.69 53.48 52.96 52.42 52.57 52.82 53.47 53.41 53.09 53.01 52.56 52.30 51.90 51.42 52.89 53.50 53.59 53.95 54.12 54.68 55.04 54.95 54.97 55.02 54.61 53.34 53.73 54.43 55.63 57.50 61.40 63.22 64.52 62.80 63.31
48.60 45.50 48.12 47.83 48.49 49.23 48.42 48.58 50.54 48.40 47.47 50.62 50.63 52.47 52.84 51.91 52.13 52.20 52.89 53.58 53.71 53.26 52.71 52.42 52.17 51.61 51.26 51.93 52.48 53.22 53.62 53.79 54.14 54.80 55.12 55.02 54.65 54.78 54.89 55.05 55.50 56.56 54.78 59.02 61.82 63.25 63.73 62.55 61.28
44.30 47.30 47.36 47.60 48.67 48.19 47.19 49.84 48.40 49.25 49.68 52.42 52.55 53.40 53.58 51.49 51.64 51.93 52.42 53.19 52.76 51.97 52.29 52.11 51.89 50.51 51.38 52.03 51.99 52.37 52.84 53.45 53.46 54.29 55.03 54.09 53.16 53.11 53.07 53.28 54.65 55.70 57.97 60.66 62.14 65.08 61.52 60.63 60.24
45.47 47.08 47.93 48.92 48.50 48.19 49.01 47.29 47.64 48.43 51.57 52.77 52.68 51.55 51.51 51.66 51.82 52.83 53.40 53.72 52.60 51.43 51.85 51.52 50.67 50.41 51.03 51.45 51.90 52.58 52.73 53.20 53.58 53.86 54.25 53.51 52.49 52.35 53.41 53.05 53.01 54.62 57.11 60.42 61.55 60.90 60.13 59.43 58.86
48.49 47.94 48.21 48.92 48.34 48.40 45.81 47.21 46.50 49.32 50.51 50.56 51.26 50.38 50.96 51.33 51.86 52.56 52.53 51.73 51.42 51.55 50.95 50.10 49.59 50.26 51.06 51.35 52.53 52.45 52.83 53.20 53.13 53.09 53.15 53.59 52.47 51.30 52.54 52.64 51.81 53.74 56.36 59.02 60.00 59.59 58.40 57.57 57.10
48.32 44.96 48.30 48.26 47.81 46.43 46.58 44.90 44.91 50.38 50.75 48.78 49.37 50.24 50.64 51.42 52.22 51.94 52.56 51.47 52.03 51.36 49.78 48.71 48.92 50.13 51.21 52.27 52.37 52.50 53.17 52.57 52.29 52.06 53.24 53.33 52.60 52.02 52.00 51.78 51.31 53.00 56.61 56.89 59.45 58.88 58.75 57.07 55.86
44.90 45.31 44.06 46.32 46.21 46.70 45.31 44.91 50.32 50.45 48.97 48.57 49.69 49.93 50.13 50.92 51.48 52.33 52.43 51.75 51.39 50.02 47.77 48.25 49.29 50.58 52.02 51.90 52.17 52.66 53.21 52.54 52.44 52.38 52.97 51.93 51.65 51.81 51.23 51.15 51.11 53.47 57.17 55.14 58.29 57.76 57.08 56.05 55.31
44.97 42.58 44.96 45.79 46.60 46.00 44.45 45.32 50.61 49.35 48.14 48.13 49.74 49.88 49.79 50.27 51.15 51.91 52.19 51.37 50.63 48.69 47.04 47.98 49.65 51.11 51.54 51.83 52.38 52.76 52.81 52.36 51.96 52.18 52.04 51.54 51.68 51.53 51.14 51.11 51.26 53.65 54.65 55.42 57.99 56.90 55.93 54.64 54.80
43.88 42.95 45.50 43.83 45.16 44.23 43.89 43.96 48.29 50.61 50.08 49.24 50.05 50.54 49.97 49.54 50.32 51.57 51.43 50.82 49.18 48.01 47.16 48.34 50.56 51.27 51.58 51.88 51.77 51.93 52.15 51.75 52.58 52.20 51.98 52.15 51.36 50.83 50.75 51.07 52.00 53.66 53.15 56.15 56.74 55.79 55.62 55.18 54.96
44.42 43.54 43.13 46.45 45.28 41.11 43.53 44.68 47.15 49.83 50.01 49.62 49.95 49.79 50.24 49.72 51.63 51.91 50.83 49.00 47.96 47.42 46.82 48.80 50.28 50.65 50.75 50.13 48.53 48.12 48.24 49.72 51.76 52.46 51.84 52.32 51.30 51.26 51.41 50.74 52.45 51.49 52.68 56.46 55.99 55.20 54.35 52.45 52.12
42.95 41.61 42.22 45.90 43.52 40.24 43.47 42.80 46.64 48.56 47.17 47.78 48.62 48.50 48.70 50.17 50.04 49.38 48.60 47.74 47.07 46.58 47.23 49.58 49.99 50.17 50.25 49.84 48.88 48.15 48.39 50.18 51.14 53.59 53.24 51.68 51.35 51.68 51.43 51.80 50.61 51.78 53.95 55.44 55.50 54.89 53.18 52.75 53.87
41.89 40.84 41.25 40.97 42.88 44.40 40.48 44.03 48.47 46.82 45.55 46.60 46.99 47.32 47.30 48.08 48.69 47.78 46.81 46.81 46.91 46.68 48.00 48.91 49.64 49.89 49.98 49.29 49.09 49.60 51.52 52.54 52.71 52.34 52.10 52.07 51.86 52.23 51.97 51.50 51.48 52.50 55.86 54.85 55.50 54.64 53.24 52.45 54.79
39.64 44.49 42.09 39.77 39.64 38.78 41.24 37.61 39.48 47.63 45.72 45.02 45.25 46.40 46.66 46.50 48.54 47.57 46.43 46.16 46.22 47.35 49.15 49.25 49.72 49.69 49.30 49.36 47.74 48.05 48.36 49.37 51.07 52.55 52.87 52.25 52.70 52.73 52.78 51.50 51.53 53.42 56.97 55.38 55.81 55.55 54.50 54.15 52.34
41.20 41.68 40.72 39.51 38.78 38.66 39.45 36.09 43.74 46.27 43.45 44.14 45.40 45.94 46.14 46.63 47.70 46.63 46.15 45.79 46.00 47.62 49.30 49.80 49.92 49.59 49.04 48.32 47.51 47.92 48.78 50.68 52.35 51.88 52.92 52.97 53.48 53.59 52.89 53.77 54.35 55.14 56.98 56.41 55.21 54.39 54.52 54.32 53.12
42.63 40.15 39.58 39.30 38.76 34.34 38.71 37.39 43.39 47.08 43.59 42.84 44.77 45.05 45.14 45.88 46.62 46.37 46.22 44.77 45.48 47.64 48.99 49.70 49.33 48.86 48.95 47.86 47.54 47.80 48.57 49.71 50.81 51.11 51.36 54.80 55.58 56.34 56.89 57.29 57.60 58.11 57.45 55.63 54.99 55.21 54.54 54.12 53.98
40.30 38.44 37.07 35.11 32.25 33.32 34.51 33.56 41.12 45.63 43.50 43.30 44.82 44.53 45.15 45.77 45.50 44.62 42.90 42.81 44.84 46.38 48.19 48.58 48.42 48.27 48.72 47.73 47.53 47.69 47.89 50.25 50.24 50.05 50.94 51.84 56.07 57.01 57.47 57.48 58.69 58.12 57.83 56.79 55.81 55.11 54.11 54.13 53.04
37.35 39.39 35.95 30.97 32.66 35.03 33.09 32.08 41.08 43.97 45.42 43.80 46.28 46.09 45.29 45.02 45.22 44.36 43.91 43.43 44.51 45.80 47.79 47.94 47.98 47.80 47.95 47.61 47.33 47.88 47.18 49.17 49.74 50.85 50.80 50.65 51.31 53.65 57.87 57.90 58.25 58.53 58.01 56.43 55.86 54.71 54.07 53.80 52.25
37.63 33.50 39.18 34.44 29.15 30.79 37.03 39.99 44.18 41.57 42.08 43.05 43.33 45.26 44.54 44.81 44.71 44.54 44.27 43.11 44.28 45.43 47.35 48.02 47.53 47.14 47.23 47.25 47.43 47.30 46.58 46.90 49.12 50.10 50.24 50.81 51.20 51.20 53.53 54.25 54.43 57.26 58.36 57.93 56.52 55.05 54.88 52.97 52.03
38.22 40.52 33.12 34.54 30.50 28.76 36.62 36.36 39.29 39.41 40.63 42.27 42.94 43.51 45.72 45.86 45.04 44.72 44.11 42.71 43.92 45.72 47.43 47.88 48.06 47.02 47.13 47.21 47.42 46.54 45.57 46.75 47.43 49.56 49.46 49.00 49.84 50.41 53.09 53.49 54.30 54.27 53.76 55.98 56.35 54.89 54.43 52.67 52.37
33.98 34.24 35.43 37.15 36.14 31.88 32.36 37.58 43.08 42.95 42.21 42.90 44.38 45.54 45.95 46.44 45.69 44.76 44.15 43.38 43.44 45.41 46.58 47.45 47.80 48.01 46.89 46.77 47.48 46.85 45.45 47.05 46.31 48.10 47.63 48.45 48.72 48.86 49.79 51.60 51.36 50.28 49.88 50.52 52.09 53.45 53.71 51.64 51.82
39.31 37.15 37.38 33.84 31.85 33.74 31.37 36.51 42.52 42.13 41.44 41.81 43.83 45.94 47.08 47.19 46.86 45.52 44.44 43.17 42.37 44.03 45.67 46.83 47.56 48.15 47.68 46.36 46.46 45.99 44.78 45.83 45.50 46.02 47.06 46.50 47.13 48.00 48.87 49.12 49.69 49.63 48.12 47.95 49.85 49.44 49.86 48.86 47.88
MSLP
1011.45 1010.50 1009.90 1009.17 1008.04 1006.12 1004.29 1004.00 1004.33 1004.87 1005.47 1005.89 1006.31 1006.11 1006.47 1006.88 1007.50 1009.80 1011.30 1011.72 1012.18 1012.20 1012.47 1012.82 1013.65 1013.72 1013.65 1013.55 1013.54 1013.45 1013.32 1013.16 1013.03 1012.86 1012.70 1012.53 1012.36 1012.18 1012.16 1012.26 1012.36 1012.53 1012.65 1012.78 1012.70 1012.75 1013.06 1013.50 1013.90
1010.51 1010.22 1009.74 1007.84 1006.55 1004.37 1002.99 1003.49 1004.43 1004.67 1005.79 1006.77 1007.00 1007.08 1007.19 1007.33 1008.83 1010.25 1011.11 1011.95 1012.21 1012.41 1012.63 1012.98 1013.81 1013.80 1013.73 1013.75 1013.64 1013.57 1013.49 1013.39 1013.19 1013.05 1012.83 1012.68 1012.45 1012.28 1012.15 1012.15 1012.28 1012.37 1012.46 1012.49 1012.76 1012.77 1012.86 1013.27 1013.64
1011.17 1010.24 1008.61 1006.73 1005.16 1003.82 1003.11 1004.19 1004.46 1005.59 1006.82 1007.08 1007.10 1007.75 1007.56 1007.83 1009.39 1009.83 1011.11 1011.83 1012.21 1012.46 1012.80 1013.33 1013.78 1013.77 1013.75 1013.73 1013.70 1013.64 1013.49 1013.39 1013.24 1013.12 1012.92 1012.72 1012.55 1012.35 1012.23 1012.07 1012.07 1012.25 1012.23 1012.26 1012.46 1012.69 1012.86 1013.20 1013.55
1010.28 1009.47 1008.22 1006.47 1004.47 1003.88 1004.11 1004.60 1005.23 1006.16 1007.27 1007.60 1007.47 1007.62 1008.61 1009.27 1009.48 1010.07 1011.38 1011.82 1012.06 1012.59 1012.78 1013.34 1013.78 1013.74 1013.80 1013.79 1013.67 1013.62 1013.52 1013.43 1013.30 1013.15 1012.98 1012.79 1012.64 1012.47 1012.26 1012.04 1011.97 1011.85 1012.02 1011.96 1012.09 1012.47 1012.73 1013.02 1013.32
1009.96 1008.25 1006.73 1005.48 1004.40 1004.15 1004.60 1005.10 1005.65 1006.05 1006.51 1007.27 1007.96 1007.33 1008.39 1009.66 1010.23 1010.77 1011.46 1011.78 1011.93 1012.41 1012.77 1013.03 1013.80 1013.84 1013.91 1013.87 1013.76 1013.66 1013.51 1013.35 1013.24 1013.16 1013.01 1012.84 1012.63 1012.46 1012.26 1012.06 1011.85 1011.75 1011.66 1011.77 1011.72 1012.00 1012.51 1012.85 1013.15
1008.78 1007.83 1006.22 1004.91 1003.85 1004.14 1005.10 1005.43 1005.89 1006.28 1006.47 1007.34 1008.01 1007.83 1008.19 1009.40 1010.38 1010.85 1011.30 1011.60 1011.97 1012.34 1012.94 1013.11 1013.70 1013.85 1013.93 1013.86 1013.79 1013.72 1013.56 1013.43 1013.24 1013.06 1012.90 1012.76 1012.55 1012.37 1012.20 1011.96 1011.72 1011.45 1011.23 1011.24 1011.44 1011.64 1012.10 1012.59 1013.04
1008.61 1007.44 1005.83 1004.99 1004.61 1004.50 1005.28 1006.14 1006.22 1006.35 1006.51 1007.06 1007.71 1007.77 1008.16 1009.55 1010.26 1010.85 1011.25 1011.56 1011.97 1012.38 1012.80 1012.91 1013.05 1013.20 1013.46 1013.47 1013.59 1013.63 1013.48 1013.30 1013.08 1012.91 1012.79 1012.65 1012.56 1012.44 1012.31 1012.15 1011.83 1011.46 1011.06 1010.91 1010.95 1011.07 1011.73 1012.38 1012.89
1008.93 1007.85 1006.25 1005.38 1004.87 1004.97 1006.14 1006.83 1007.18 1007.00 1006.89 1007.82 1008.03 1007.64 1007.67 1008.63 1010.19 1010.98 1011.25 1011.59 1011.91 1012.31 1012.65 1012.72 1012.82 1012.93 1012.96 1013.03 1013.10 1013.22 1013.19 1013.04 1012.91 1012.71 1012.55 1012.45 1012.35 1012.12 1011.89 1011.69 1011.58 1011.39 1011.03 1010.78 1010.61 1010.66 1011.23 1011.97 1012.71
1009.56 1007.97 1006.22 1005.65 1005.68 1005.65 1006.87 1007.18 1007.63 1007.88 1007.70 1007.94 1008.07 1008.18 1008.93 1009.22 1010.46 1010.96 1011.27 1011.52 1011.76 1012.12 1012.59 1012.66 1012.67 1012.69 1012.75 1012.82 1012.58 1012.73 1012.55 1012.49 1012.33 1012.00 1011.82 1011.95 1011.57 1011.23 1010.96 1010.82 1010.72 1010.93 1010.95 1010.72 1010.52 1010.70 1010.79 1011.53 1012.39
1009.20 1007.86 1006.54 1006.60 1006.61 1006.84 1007.18 1007.58 1007.30 1007.95 1007.55 1007.25 1007.79 1008.39 1009.55 1009.91 1010.49 1010.69 1010.82 1010.91 1011.28 1011.65 1012.11 1012.44 1012.55 1012.62 1012.70 1012.56 1012.36 1012.33 1012.05 1011.81 1011.75 1011.67 1011.56 1011.42 1011.24 1011.05 1011.05 1011.05 1011.07 1010.79 1010.80 1010.86 1010.62 1010.57 1010.42 1010.89 1011.82
1009.01 1008.01 1007.42 1007.25 1007.89 1008.04 1007.79 1007.71 1007.91 1007.60 1006.91 1006.55 1006.76 1007.24 1008.74 1009.83 1010.18 1010.33 1010.37 1010.47 1010.64 1011.22 1011.78 1012.22 1012.52 1012.56 1012.59 1012.44 1012.35 1011.98 1011.75 1011.60 1011.43 1011.35 1011.31 1011.24 1011.11 1010.84 1010.64 1010.51 1010.29 1010.09 1009.92 1009.98 1009.83 1010.10 1010.24 1009.66 1010.99
1009.35 1008.33 1008.30 1008.13 1008.73 1008.72 1008.39 1008.24 1007.72 1007.11 1006.67 1006.57 1007.02 1006.92 1007.79 1009.18 1009.56 1009.85 1010.01 1010.26 1010.83 1011.39 1011.69 1012.21 1012.45 1012.54 1012.47 1012.38 1012.15 1011.77 1011.54 1011.39 1011.34 1011.07 1010.94 1011.05 1010.96 1010.77 1010.69 1010.53 1010.15 1009.85 1009.49 1009.44 1009.41 1009.55 1010.70 1011.43 1010.92
1009.23 1008.39 1008.51 1008.70 1009.10 1008.97 1009.04 1008.61 1007.93 1006.65 1006.48 1006.67 1007.07 1007.78 1008.06 1008.61 1009.06 1009.45 1009.75 1010.16 1010.85 1011.31 1011.69 1012.05 1012.40 1012.41 1012.35 1012.32 1011.97 1011.67 1011.46 1011.24 1011.10 1010.97 1010.83 1010.97 1010.94 1010.79 1010.60 1010.66 1010.60 1009.93 1009.82 1009.68 1009.69 1009.99 1011.07 1011.17 1012.89
1009.08 1008.95 1008.61 1008.67 1008.95 1009.20 1009.19 1008.18 1008.21 1006.02 1006.34 1006.43 1006.56 1007.55 1007.93 1008.14 1008.53 1009.00 1009.61 1010.16 1010.86 1011.35 1011.69 1012.09 1012.29 1012.33 1012.30 1012.16 1011.86 1011.56 1011.34 1011.11 1011.01 1010.83 1010.75 1010.83 1011.06 1011.10 1010.67 1010.47 1010.51 1009.99 1009.69 1009.98 1009.71 1010.11 1011.42 1012.38 1012.92
1009.43 1009.08 1008.14 1008.10 1008.78 1008.99 1009.26 1007.62 1006.42 1005.81 1006.06 1006.26 1006.38 1006.79 1007.39 1007.70 1008.17 1008.57 1009.19 1009.97 1010.51 1011.30 1011.80 1012.08 1012.26 1012.37 1012.26 1011.97 1011.67 1011.43 1011.11 1010.96 1010.87 1010.81 1010.75 1010.66 1010.81 1010.70 1010.73 1010.50 1010.33 1009.90 1009.69 1010.22 1009.80 1010.60 1011.57 1012.96 1013.06
1009.38 1008.93 1007.91 1007.87 1008.70 1009.19 1009.38 1006.00 1004.81 1005.18 1005.56 1005.63 1005.77 1006.16 1006.67 1007.16 1007.73 1008.32 1008.90 1009.86 1010.73 1011.36 1011.76 1012.00 1012.14 1012.19 1012.05 1011.83 1011.56 1011.26 1010.87 1010.75 1010.70 1010.64 1010.50 1010.63 1010.62 1010.55 1010.56 1010.47 1010.25 1009.91 1009.89 1010.47 1010.00 1010.83 1011.80 1012.42 1014.06
1008.75 1007.53 1007.16 1007.42 1008.45 1008.76 1008.80 1006.01 1004.84 1005.23 1005.34 1005.08 1004.92 1005.43 1006.12 1006.68 1007.33 1008.05 1008.88 1009.99 1010.67 1011.33 1011.69 1011.87 1012.02 1011.98 1011.91 1011.71 1011.52 1011.19 1010.86 1010.74 1010.71 1010.54 1010.43 1010.49 1010.38 1010.46 1010.39 1010.25 1010.16 1009.86 1010.14 1010.29 1010.11 1011.39 1011.82 1012.63 1013.65
1007.59 1007.47 1007.01 1007.54 1008.28 1008.63 1007.95 1005.87 1005.02 1004.47 1004.43 1004.21 1004.35 1004.57 1005.25 1006.24 1006.89 1007.89 1008.94 1009.92 1010.72 1011.27 1011.64 1011.86 1011.93 1011.91 1011.84 1011.67 1011.61 1011.31 1010.88 1010.84 1010.43 1010.27 1010.30 1010.28 1010.29 1010.36 1010.24 1010.08 1010.03 1010.19 1010.14 1009.90 1010.65 1011.43 1012.42 1012.76 1013.94
1008.16 1007.97 1007.52 1007.40 1008.14 1008.65 1006.98 1005.51 1004.11 1003.50 1003.30 1003.13 1003.44 1003.98 1004.41 1005.47 1006.74 1007.87 1009.00 1010.11 1010.76 1011.25 1011.61 1011.79 1011.87 1011.87 1011.91 1011.79 1011.89 1011.75 1011.37 1010.98 1010.40 1010.23 1010.26 1009.88 1010.18 1010.19 1009.98 1009.86 1010.06 1010.27 1010.09 1009.65 1010.80 1011.36 1012.46 1014.12 1014.32
1008.73 1008.47 1007.97 1007.68 1008.43 1008.86 1006.77 1005.11 1003.61 1002.90 1002.87 1002.99 1003.21 1003.72 1004.39 1005.07 1006.50 1008.20 1009.27 1010.11 1010.68 1011.12 1011.58 1011.75 1011.81 1011.89 1011.92 1012.09 1012.17 1012.14 1011.73 1011.07 1010.54 1010.08 1009.82 1009.91 1010.03 1010.08 1009.93 1009.91 1010.15 1010.29 1009.75 1010.26 1011.21 1011.94 1012.93 1013.81 1014.51
1008.95 1008.91 1008.95 1008.80 1008.66 1007.97 1007.69 1004.70 1003.06 1002.97 1003.42 1003.69 1004.27 1004.73 1005.32 1005.70 1006.58 1008.28 1009.32 1009.97 1010.55 1011.03 1011.51 1011.71 1011.80 1012.00 1012.07 1012.25 1012.12 1011.95 1011.28 1010.73 1010.21 1010.00 1009.66 1009.83 1009.96 1010.08 1010.02 1010.15 1010.51 1010.47 1010.12 1010.73 1011.47 1012.05 1012.28 1013.80 1014.74
1008.97 1008.90 1009.43 1009.44 1009.14 1008.03 1008.22 1005.98 1004.09 1002.60 1002.81 1003.30 1004.09 1004.93 1005.53 1006.29 1007.00 1008.31 1009.23 1009.90 1010.45 1010.99 1011.51 1011.65 1011.72 1012.08 1012.21 1012.27 1012.14 1011.98 1011.55 1011.02 1010.64 1010.30 1009.77 1009.88 1009.78 1009.82 1010.11 1010.33 1010.24 1010.43 1010.63 1011.10 1011.58 1012.39 1012.84 1013.45 1014.32
1009.50 1009.93 1009.90 1009.81 1009.38 1008.76 1007.86 1007.63 1003.33 1002.70 1002.48 1003.01 1004.07 1005.01 1005.85 1006.57 1007.25 1008.37 1009.29 1009.90 1010.50 1011.09 1011.34 1011.55 1011.62 1011.98 1012.24 1012.24 1012.19 1012.10 1011.68 1011.29 1010.73 1010.53 1010.14 1009.88 1009.85 1010.15 1010.34 1010.55 1010.60 1010.64 1011.09 1011.68 1012.18 1012.81 1013.30 1013.95 1014.47
1010.46 1010.39 1010.23 1009.92 1009.44 1008.64 1007.30 1007.05 1003.32 1002.40 1002.45 1003.13 1004.21 1005.22 1006.24 1006.94 1007.66 1008.62 1009.44 1010.14 1010.70 1011.04 1011.27 1011.47 1011.61 1011.95 1012.13 1012.19 1012.17 1012.19 1011.94 1011.52 1011.06 1010.78 1010.37 1009.89 1009.89 1010.15 1010.43 1010.45 1010.81 1010.89 1011.44 1012.01 1012.63 1013.33 1013.63 1014.12 1014.74
1010.76 1010.37 1009.63 1009.44 1009.14 1007.59 1007.52 1006.85 1003.40 1002.25 1002.42 1002.89 1003.79 1005.11 1006.19 1007.05 1007.79 1008.64 1009.43 1010.06 1010.50 1010.82 1011.16 1011.45 1011.59 1011.80 1012.00 1012.17 1012.16 1012.25 1012.22 1011.84 1011.44 1011.29 1010.87 1010.52 1010.25 1010.29 1010.37 1010.47 1010.74 1011.30 1011.84 1012.50 1012.98 1013.47 1013.93 1014.44 1015.03
1010.23 1009.69 1008.81 1008.16 1007.93 1006.98 1007.44 1005.09 1002.19 1001.99 1002.23 1003.15 1003.65 1004.79 1005.97 1006.87 1007.67 1008.53 1009.19 1009.75 1010.23 1010.65 1011.05 1011.39 1011.54 1011.70 1012.03 1012.17 1012.24 1012.30 1012.42 1012.19 1011.88 1011.58 1011.34 1011.06 1011.19 1011.00 1010.77 1010.78 1010.93 1011.30 1011.84 1012.39 1012.98 1013.48 1014.08 1014.76 1015.34
1010.09 1010.05 1009.31 1008.61 1008.98 1007.55 1004.69 1003.04 1001.57 1001.87 1002.45 1003.07 1003.77 1004.57 1005.53 1006.45 1007.36 1008.19 1008.90 1009.54 1009.99 1010.40 1010.77 1011.18 1011.45 1011.71 1011.98 1012.15 1012.24 1012.33 1012.49 1012.37 1012.07 1011.93 1011.79 1011.62 1011.48 1011.42 1011.31 1011.44 1011.53 1011.74 1012.05 1012.57 1013.15 1013.63 1014.30 1015.11 1015.58
1009.82 1009.32 1009.51 1008.86 1007.85 1005.87 1003.05 1002.50 1001.18 1001.29 1001.57 1002.43 1003.11 1003.88 1004.75 1005.82 1006.83 1007.71 1008.48 1009.13 1009.65 1010.07 1010.52 1010.97 1011.26 1011.50 1011.78 1011.98 1012.09 1012.29 1012.51 1012.42 1012.32 1012.17 1011.98 1011.89 1011.82 1011.82 1011.70 1011.85 1012.11 1012.38 1012.64 1012.87 1013.25 1013.94 1014.59 1015.26 1015.86
1009.83 1009.23 1008.78 1007.90 1006.72 1005.16 1003.20 1001.05 1000.26 1000.34 1001.01 1001.62 1002.33 1003.14 1003.93 1004.98 1006.02 1007.07 1007.98 1008.71 1009.36 1009.88 1010.29 1010.59 1010.87 1011.12 1011.52 1011.75 1011.84 1012.06 1012.40 1012.34 1012.43 1012.30 1012.49 1012.27 1012.11 1012.17 1012.29 1012.15 1012.38 1012.82 1013.13 1013.31 1013.65 1014.11 1014.60 1015.30 1015.95
1008.48 1007.79 1007.66 1006.92 1006.39 1005.31 1004.07 1000.81 1000.37 1000.80 1001.34 1001.80 1002.02 1002.60 1003.52 1004.51 1005.51 1006.55 1007.46 1008.25 1008.92 1009.51 1009.97 1010.27 1010.53 1010.77 1011.14 1011.56 1011.69 1011.94 1012.31 1012.43 1012.58 1012.53 1012.53 1012.73 1012.60 1012.48 1012.60 1012.77 1012.71 1012.84 1013.24 1013.62 1013.79 1014.10 1014.56 1015.34 1015.86
Wind_Speed
11 8 5 5 7 6 9 2 2 4 4 2 2 2 3 7 6 4 7 5 5 5 4 8 8 7 8 9 9 9 10 10 11 11 11 11 12 12 12 12 10 12 14 16 17 16 16 17 19
7 4 5 5 8 9 5 4 7 6 6 3 3 3 5 2 4 8 8 6 4 4 4 6 6 7 8 8 9 9 10 10 11 11 12 12 12 12 12 14 13 13 14 15 15 15 15 14 15
8 7 7 5 8 10 6 3 2 6 4 5 4 2 3 2 3 7 8 8 5 4 2 6 5 7 8 8 8 9 9 10 11 11 12 12 12 13 12 12 15 15 16 17 17 16 15 16 17
5 6 6 8 12 8 6 2 1 7 4 5 4 5 3 3 6 5 9 7 5 2 0 7 5 6 7 8 9 10 10 10 10 11 12 13 13 13 14 13 12 16 17 18 19 19 19 18 17
6 5 9 8 11 8 5 4 4 8 5 7 7 4 2 5 5 8 9 6 5 3 1 1 4 5 6 8 9 10 10 10 11 12 12 13 14 14 14 14 14 15 18 20 20 19 19 18 18
6 5 7 10 10 3 5 5 7 9 8 4 5 10 4 6 10 9 8 7 4 3 2 2 5 1 3 6 8 9 10 11 12 13 13 14 14 15 15 16 15 16 16 20 21 19 18 21 19
11 7 11 12 10 9 7 0 9 9 11 11 2 6 2 8 10 9 8 6 4 3 5 4 3 2 6 6 7 10 12 13 13 14 15 15 16 16 16 17 18 18 18 17 20 21 20 22 20
6 4 8 7 7 8 4 3 3 9 9 5 2 6 8 9 11 9 7 6 6 6 6 5 4 5 6 8 7 6 13 13 14 16 15 15 15 17 18 17 18 18 18 18 19 21 20 22 21
3 6 8 10 5 1 3 5 5 2 10 4 7 8 5 8 11 9 7 8 8 7 6 5 5 6 7 8 7 6 10 9 14 13 10 8 8 10 11 11 9 13 15 15 18 19 21 24 22
6 6 8 6 5 5 2 7 7 5 10 13 13 11 4 8 10 11 11 10 11 9 7 5 5 6 7 8 9 10 10 8 9 10 10 8 9 9 9 11 15 15 15 16 18 16 21 22 12
4 6 7 3 6 5 7 9 11 10 14 14 16 13 14 12 12 12 12 11 8 7 4 5 5 6 8 8 7 6 5 7 7 9 8 8 7 7 6 6 6 7 11 8 11 10 8 9 13
6 10 10 3 2 4 6 8 10 14 20 8 7 6 9 15 14 13 12 10 8 7 5 3 5 7 8 7 8 9 8 7 7 8 8 7 5 5 6 6 7 6 6 4 7 4 9 11 11
9 11 5 8 7 7 11 15 15 19 18 14 10 8 11 13 14 12 11 8 7 6 5 4 5 7 8 9 9 9 9 7 7 8 8 6 6 5 6 3 5 7 3 3 6 8 7 14 13
6 9 11 7 9 8 10 14 2 8 3 12 18 14 13 13 14 12 11 10 8 6 5 4 6 7 9 10 12 9 8 8 7 7 6 4 4 5 7 4 4 6 5 3 3 12 10 10 11
5 10 11 10 7 5 4 13 17 16 9 9 10 14 15 15 14 14 12 11 7 5 2 4 6 8 10 11 9 8 7 7 6 6 8 5 4 6 7 6 4 6 4 3 8 11 10 10 10
5 4 7 7 6 3 4 11 1 6 7 11 12 12 14 16 15 13 11 8 7 4 3 4 5 9 9 9 8 7 7 7 6 5 4 6 6 5 6 6 4 6 1 4 9 10 12 12 10
7 9 10 4 6 2 8 11 5 4 8 12 12 12 13 14 15 14 11 9 7 4 1 4 7 8 9 8 8 9 9 6 6 5 5 6 6 5 5 4 5 5 2 4 10 11 11 11 13
7 10 9 9 5 7 11 24 22 20 21 22 18 16 14 14 16 13 12 9 7 5 1 4 5 7 7 6 8 8 7 6 5 4 3 5 3 5 6 4 4 1 4 5 12 14 9 10 12
9 11 14 11 4 6 13 20 22 20 21 22 19 16 16 16 12 12 11 9 7 5 1 4 6 6 6 6 7 6 6 8 6 2 5 3 3 5 5 3 3 2 5 14 15 14 16 10 14
11 12 12 10 1 4 14 23 24 17 9 9 10 10 12 13 14 11 11 9 6 4 2 3 5 5 5 5 5 3 6 7 7 6 1 2 2 3 3 3 1 3 2 15 15 14 12 10 9
12 11 4 8 7 12 13 13 6 5 5 6 6 4 4 10 14 13 12 10 7 5 2 3 5 5 5 6 5 5 6 5 4 6 3 3 3 1 3 4 4 2 13 13 13 15 19 11 8
13 3 6 6 6 6 3 10 6 9 8 8 7 7 7 9 13 13 12 10 7 4 3 2 4 4 4 5 5 8 5 4 4 5 2 4 4 3 4 3 2 2 9 14 13 11 11 12 11
1 2 3 3 6 8 7 5 7 4 5 4 5 5 5 9 13 13 11 9 6 5 2 2 4 3 4 5 5 6 6 5 4 4 6 7 5 6 4 4 3 3 8 11 12 12 10 5 6
9 3 3 3 4 5 4 5 4 4 1 3 5 6 8 11 12 12 10 8 6 4 3 1 3 2 3 4 5 7 6 6 5 6 5 4 6 6 5 3 6 6 9 10 10 9 10 9 4
6 5 2 3 4 5 2 5 12 4 3 3 8 10 10 11 12 12 11 9 7 5 3 1 2 2 3 4 4 5 6 6 6 6 4 6 4 6 8 7 9 8 10 9 9 9 9 8 6
12 5 5 6 4 3 2 8 6 2 1 5 7 11 12 12 11 11 10 8 7 5 4 3 1 2 2 3 3 3 4 2 3 4 3 3 4 4 6 8 8 10 11 10 8 7 7 7 6
9 9 3 4 2 4 8 9 11 8 6 9 9 12 13 13 12 12 10 9 8 7 6 4 2 0 1 1 1 2 3 3 3 3 2 2 3 2 7 7 6 5 7 11 10 8 9 7 8
4 4 4 4 5 7 6 6 11 5 9 11 13 13 14 13 13 12 11 10 8 7 6 5 4 3 3 3 3 2 2 3 2 2 3 4 3 3 5 6 6 6 5 5 6 7 7 7 6
7 7 7 3 5 4 4 5 1 2 2 11 12 13 13 15 14 13 11 10 9 8 7 7 6 5 4 4 4 4 0 3 1 1 2 2 4 3 3 4 5 5 5 5 6 6 10 10 8
14 14 17 7 6 6 2 8 3 2 2 1 5 10 12 12 13 13 12 12 11 10 9 8 7 6 5 4 4 4 3 2 2 1 3 2 3 3 3 2 3 5 5 4 6 9 9 11 11
Wind_Direction
277 245 253 253 242 232 257 224 297 201 205 107 17 257 321 0 330 331 125 110 136 114 96 86 37 23 16 10 4 358 352 350 344 342 337 331 332 292 257 249 237 225 224 223 217 210 198 192 192
284 249 233 269 254 239 259 160 200 214 90 182 157 204 243 245 88 121 159 136 129 106 80 62 22 8 4 357 352 347 341 334 329 326 329 323 313 314 296 265 260 237 232 226 223 207 199 195 188
262 243 256 232 250 256 304 62 275 93 157 199 190 290 4 85 122 138 90 142 153 123 91 78 15 7 0 353 343 339 336 330 326 322 319 315 316 305 295 298 261 252 236 232 225 209 190 178 172
219 198 234 249 251 252 283 57 304 160 189 223 257 240 138 43 144 147 139 158 162 153 164 97 34 24 11 358 353 344 337 329 324 320 314 311 308 309 306 293 295 255 243 234 223 214 192 180 168
225 259 250 243 262 275 285 289 231 224 204 203 206 220 236 175 135 136 157 176 189 191 299 155 60 28 6 356 352 344 334 326 318 316 312 304 299 297 295 298 293 277 257 237 231 218 203 186 166
228 278 247 255 260 210 271 256 231 240 224 159 224 259 253 121 174 167 172 181 186 227 251 238 154 157 339 338 333 323 319 316 313 308 306 300 295 292 288 283 284 276 264 246 232 223 206 184 170
258 249 262 280 280 277 260 322 226 241 233 219 245 252 106 179 186 171 187 187 197 232 237 241 270 308 224 251 287 304 309 306 302 300 298 293 291 289 285 283 278 276 265 261 243 222 204 187 175
277 276 262 245 268 270 102 210 328 262 257 69 155 243 248 174 174 179 187 202 219 229 245 255 283 302 305 309 294 273 301 301 302 297 293 290 287 275 270 266 270 268 266 266 261 231 202 183 165
273 249 256 253 269 15 121 232 156 347 265 208 200 267 45 125 160 186 194 217 230 232 237 259 281 294 306 304 302 280 276 291 277 276 264 260 273 279 276 268 277 284 279 275 277 272 201 174 156
238 253 268 10 334 290 258 263 282 249 230 240 239 230 181 171 186 199 209 221 221 236 214 251 284 311 315 308 317 312 305 305 303 300 298 298 296 297 310 308 292 275 268 272 275 273 207 171 148
195 247 2 296 304 293 286 270 247 260 258 252 249 231 195 208 207 216 224 232 244 225 230 249 305 313 313 314 317 298 312 307 303 295 285 290 293 291 289 280 273 255 226 239 235 239 184 205 133
252 242 274 312 326 278 273 299 256 247 257 303 316 292 198 210 216 219 226 230 226 230 248 280 301 310 312 315 308 310 307 310 299 287 292 290 283 286 289 293 286 279 262 249 245 197 138 123 78
242 263 283 271 273 276 278 262 272 270 265 262 232 248 237 215 222 221 226 232 236 240 252 283 317 310 316 313 307 311 308 301 298 294 287 285 284 297 291 278 294 281 272 297 296 127 152 126 117
3 297 279 275 273 263 266 276 304 258 325 253 238 230 233 223 221 216 216 222 215 231 248 314 306 318 319 312 313 312 305 297 296 290 292 287 277 279 278 287 291 261 245 310 164 120 130 106 122
299 293 281 240 248 258 298 263 231 251 236 256 232 229 230 226 221 218 210 219 213 212 262 294 321 321 317 317 321 311 305 302 286 289 283 316 295 252 273 282 286 259 239 313 142 122 122 126 112
253 245 270 115 178 155 241 277 298 171 221 241 235 224 221 219 216 212 211 204 184 197 235 320 324 320 327 323 321 310 308 307 308 306 297 276 261 257 255 263 270 251 311 317 142 130 127 121 126
206 270 228 236 209 219 222 287 308 196 233 247 243 221 223 216 209 207 194 195 182 180 236 323 326 327 333 331 323 315 312 314 299 281 277 268 253 248 242 254 254 233 321 259 130 128 133 130 125
253 238 249 261 145 225 252 265 273 269 253 253 254 255 217 215 209 198 188 178 164 167 140 317 323 338 341 345 335 333 329 321 300 296 292 280 239 245 240 220 236 316 293 181 129 128 128 125 112
293 278 276 281 115 284 265 277 282 279 269 260 253 247 238 210 206 182 176 165 166 158 159 325 338 350 353 353 350 333 331 323 320 316 291 255 213 228 240 202 88 285 270 138 128 125 120 112 110
249 266 274 281 148 266 296 292 285 286 276 274 256 246 240 213 191 171 170 166 174 151 161 352 1 354 0 353 343 305 309 294 287 316 295 84 204 224 197 132 68 290 244 118 131 133 128 122 141
229 247 263 280 310 252 295 276 263 206 229 225 219 210 218 220 185 181 178 172 166 163 134 23 17 358 6 356 332 330 314 321 342 335 74 122 129 172 171 119 157 259 131 129 140 146 146 149 146
255 230 244 280 305 297 16 289 299 268 263 215 219 202 195 198 186 178 174 169 172 149 142 44 29 8 5 7 343 338 313 348 318 331 18 102 99 163 104 107 35 79 140 146 148 148 155 156 150
162 124 216 250 270 314 184 257 263 252 268 184 180 170 170 177 181 171 170 166 154 163 131 49 35 19 12 19 356 338 340 342 331 351 345 109 99 82 82 157 171 33 138 141 142 147 148 141 159
125 162 209 247 263 246 178 235 277 236 189 138 140 146 152 158 159 163 155 155 169 166 160 66 32 2 25 31 4 340 354 342 356 15 4 112 124 131 131 169 167 136 125 131 142 150 139 144 126
196 201 238 232 213 255 137 227 260 256 215 188 162 154 155 158 159 161 168 178 179 188 166 97 355 346 353 53 22 347 344 346 1 8 4 18 82 118 120 105 134 135 136 141 152 151 145 143 137
193 233 235 256 241 22 136 235 252 42 95 137 153 153 156 167 172 177 180 181 181 189 191 180 314 349 331 64 28 360 343 349 341 23 3 36 42 354 124 134 130 136 137 143 141 144 146 120 120
155 213 2 296 112 269 236 246 265 171 183 186 165 167 175 179 181 183 182 186 187 194 201 190 194 303 251 144 59 46 334 345 357 17 63 51 42 25 41 73 52 91 136 144 155 155 155 137 134
245 127 159 223 229 248 230 249 252 202 218 198 194 191 186 183 184 187 188 191 195 196 198 195 192 209 223 201 168 108 321 316 349 357 35 69 66 70 92 91 109 107 87 101 127 128 132 127 128
173 205 225 277 239 257 281 237 54 306 159 197 203 198 190 187 187 189 190 193 195 197 203 207 204 198 214 194 179 156 157 290 359 54 44 36 71 61 90 142 132 130 126 119 126 139 144 138 138
244 213 204 215 192 241 349 259 140 133 135 226 245 185 193 188 187 188 191 189 193 201 207 212 209 208 196 193 186 165 156 268 275 135 117 44 90 75 95 104 122 129 127 126 147 144 150 151 149